�������l�o���
Date,Time,MP-1(��Sv/h),MP-2(��Sv/h),MP-3(��Sv/h),MP-4(��Sv/h),MP-5(��Sv/h),MP-6(��Sv/h),MP-7(��Sv/h),MP-8(��Sv/h),����,����(m/s),���J
2018/10/16,00:00,0.780,1.178,0.830,1.474,1.062,0.460,0.806,0.763,�쐼,3.0,��
2018/10/16,00:10,0.781,1.179,0.829,1.475,1.060,0.461,0.805,0.763,���쐼,2.3,��
2018/10/16,00:20,0.781,1.178,0.829,1.473,1.060,0.462,0.806,0.765,��,1.7,��
2018/10/16,00:30,0.780,1.178,0.828,1.476,1.060,0.459,0.805,0.764,���k��,2.6,��
2018/10/16,00:40,0.781,1.177,0.827,1.474,1.060,0.461,0.806,0.764,�k��,2.0,��
2018/10/16,00:50,0.780,1.177,0.828,1.477,1.061,0.460,0.807,0.763,�k��,1.9,��
2018/10/16,01:00,0.779,1.176,0.826,1.476,1.062,0.461,0.807,0.763,�k�k��,1.2,��
2018/10/16,01:10,0.780,1.174,0.828,1.477,1.062,0.460,0.807,0.764,�k,2.3,��
2018/10/16,01:20,0.781,1.175,0.829,1.476,1.064,0.461,0.806,0.763,�k�k��,2.3,��
2018/10/16,01:30,0.779,1.175,0.826,1.476,1.062,0.461,0.806,0.762,�k�k��,1.5,��
2018/10/16,01:40,0.778,1.174,0.827,1.474,1.059,0.462,0.804,0.763,-,CALM,��
2018/10/16,01:50,0.780,1.178,0.828,1.475,1.061,0.460,0.806,0.764,��,1.1,��
2018/10/16,02:00,0.780,1.177,0.827,1.472,1.061,0.460,0.806,0.765,���쐼,0.9,��
2018/10/16,02:10,0.779,1.177,0.828,1.475,1.060,0.462,0.807,0.766,���k��,1.7,��
2018/10/16,02:20,0.780,1.176,0.829,1.477,1.060,0.460,0.805,0.764,�k��,3.0,��
2018/10/16,02:30,0.781,1.177,0.826,1.476,1.061,0.459,0.807,0.763,�k��,3.2,��
2018/10/16,02:40,0.781,1.178,0.825,1.475,1.061,0.460,0.806,0.763,�k�k��,1.7,��
2018/10/16,02:50,0.781,1.175,0.828,1.473,1.061,0.460,0.806,0.765,�k��,1.5,��
2018/10/16,03:00,0.779,1.174,0.827,1.475,1.058,0.459,0.808,0.763,���k��,1.5,��
2018/10/16,03:10,0.780,1.177,0.826,1.476,1.058,0.462,0.806,0.764,���k��,1.7,��
2018/10/16,03:20,0.778,1.175,0.827,1.475,1.059,0.461,0.804,0.762,���k��,2.5,��
2018/10/16,03:30,0.777,1.177,0.827,1.474,1.060,0.461,0.806,0.764,���k��,2.8,��
2018/10/16,03:40,0.779,1.177,0.826,1.473,1.060,0.461,0.808,0.763,�k��,2.0,��
2018/10/16,03:50,0.780,1.179,0.827,1.476,1.058,0.462,0.804,0.763,�k��,3.8,��
2018/10/16,04:00,0.779,1.174,0.828,1.476,1.059,0.461,0.807,0.761,�k��,4.5,��
2018/10/16,04:10,0.779,1.176,0.828,1.473,1.061,0.459,0.806,0.763,�k��,4.1,��
2018/10/16,04:20,0.778,1.173,0.827,1.476,1.059,0.461,0.806,0.763,�k��,4.4,��
2018/10/16,04:30,0.779,1.175,0.829,1.472,1.060,0.460,0.806,0.762,�k�k��,3.8,��
2018/10/16,04:40,0.779,1.171,0.827,1.475,1.059,0.461,0.805,0.764,�k�k��,3.5,��
2018/10/16,04:50,0.779,1.172,0.827,1.474,1.058,0.460,0.806,0.762,�k�k��,3.7,��
2018/10/16,05:00,0.778,1.174,0.827,1.476,1.060,0.461,0.807,0.763,�k�k��,3.5,��
2018/10/16,05:10,0.777,1.172,0.825,1.475,1.060,0.462,0.805,0.763,�k��,3.3,��
2018/10/16,05:20,0.779,1.174,0.827,1.476,1.061,0.459,0.806,0.763,�k��,2.5,��
2018/10/16,05:30,0.778,1.173,0.827,1.474,1.061,0.460,0.805,0.763,�k��,2.3,��
2018/10/16,05:40,0.780,1.175,0.825,1.474,1.059,0.460,0.807,0.763,�k�k��,1.7,��
2018/10/16,05:50,0.778,1.174,0.826,1.475,1.060,0.461,0.805,0.765,�k�k��,2.3,��
2018/10/16,06:00,0.779,1.173,0.827,1.474,1.060,0.460,0.806,0.763,�k�k��,2.6,��
2018/10/16,06:10,0.778,1.173,0.827,1.475,1.058,0.460,0.805,0.765,�k�k��,2.6,��
2018/10/16,06:20,0.779,1.176,0.827,1.473,1.058,0.461,0.805,0.763,�k�k��,2.8,��
2018/10/16,06:30,0.780,1.175,0.828,1.475,1.059,0.460,0.806,0.764,�k�k��,2.2,��
2018/10/16,06:40,0.779,1.174,0.827,1.476,1.060,0.460,0.805,0.764,�k�k��,2.5,��
2018/10/16,06:50,0.779,1.173,0.826,1.476,1.058,0.462,0.807,0.763,�k�k��,2.5,��
2018/10/16,07:00,0.780,1.172,0.825,1.474,1.059,0.459,0.806,0.763,�k�k��,2.6,��
2018/10/16,07:10,0.779,1.176,0.828,1.475,1.058,0.460,0.806,0.765,�k�k��,3.4,��
2018/10/16,07:20,0.780,1.174,0.827,1.475,1.061,0.460,0.806,0.765,�k��,3.1,��
2018/10/16,07:30,0.781,1.177,0.827,1.475,1.061,0.459,0.806,0.765,�k�k��,3.6,��
2018/10/16,07:40,0.780,1.178,0.827,1.474,1.057,0.461,0.807,0.763,�k�k��,3.3,��
2018/10/16,07:50,0.779,1.175,0.828,1.475,1.060,0.462,0.807,0.764,�k�k��,3.1,��
2018/10/16,08:00,0.780,1.174,0.825,1.474,1.059,0.459,0.805,0.764,�k�k��,2.9,��
2018/10/16,08:10,0.780,1.179,0.826,1.474,1.060,0.460,0.805,0.765,�k�k��,3.4,��
2018/10/16,08:20,0.781,1.174,0.829,1.473,1.059,0.462,0.807,0.765,�k�k��,3.2,��
2018/10/16,08:30,0.780,1.175,0.828,1.474,1.061,0.461,0.809,0.765,�k�k��,2.8,��
2018/10/16,08:40,0.782,1.174,0.826,1.477,1.062,0.460,0.804,0.764,�k�k��,2.9,��
2018/10/16,08:50,0.782,1.177,0.827,1.477,1.064,0.461,0.806,0.765,�k�k��,2.3,��
2018/10/16,09:00,0.782,1.176,0.829,1.476,1.064,0.461,0.807,0.765,�k�k��,2.3,��
2018/10/16,09:10,0.782,1.173,0.831,1.474,1.063,0.462,0.806,0.765,�k�k��,1.7,��
2018/10/16,09:20,0.782,1.174,0.830,1.476,1.064,0.461,0.806,0.765,�k�k��,1.7,��
2018/10/16,09:30,0.779,1.170,0.827,1.477,1.064,0.461,0.806,0.764,�k�k��,1.7,��
2018/10/16,09:40,0.778,1.170,0.829,1.474,1.064,0.459,0.805,0.764,�k�k��,1.1,��
2018/10/16,09:50,0.779,1.170,0.829,1.475,1.061,0.461,0.806,0.765,-,CALM,��
2018/10/16,10:00,0.782,1.172,0.831,1.477,1.062,0.460,0.807,0.764,��,1.7,��
2018/10/16,10:10,0.782,1.176,0.830,1.478,1.063,0.459,0.806,0.766,���k��,2.0,��
2018/10/16,10:20,0.783,1.176,0.830,1.477,1.062,0.460,0.807,0.762,�k��,2.2,��
2018/10/16,10:30,0.781,1.176,0.829,1.475,1.063,0.459,0.808,0.765,�k��,2.9,��
2018/10/16,10:40,0.782,1.175,0.831,1.477,1.062,0.460,0.808,0.762,�k��,3.0,��
2018/10/16,10:50,0.780,1.174,0.827,1.475,1.062,0.461,0.807,0.763,�k��,3.3,��
2018/10/16,11:00,0.783,1.171,0.826,1.477,1.060,0.461,0.807,0.763,�k��,3.2,��
2018/10/16,11:10,0.783,1.171,0.828,1.474,1.065,0.460,0.808,0.763,�k��,3.2,��
2018/10/16,11:20,0.782,1.174,0.827,1.479,1.066,0.461,0.806,0.761,�k��,3.4,��
2018/10/16,11:30,0.783,1.174,0.829,1.478,1.064,0.461,0.808,0.765,���k��,3.2,��
2018/10/16,11:40,0.783,1.175,0.829,1.478,1.065,0.461,0.807,0.763,���k��,3.3,��
2018/10/16,11:50,0.781,1.174,0.828,1.480,1.063,0.461,0.806,0.762,��,3.5,��
2018/10/16,12:00,0.784,1.174,0.829,1.479,1.066,0.462,0.809,0.764,���k��,3.3,��
2018/10/16,12:10,0.785,1.179,0.830,1.480,1.067,0.461,0.808,0.764,���k��,3.2,��
2018/10/16,12:20,0.782,1.177,0.829,1.480,1.065,0.461,0.808,0.762,���k��,3.0,��
2018/10/16,12:30,0.782,1.176,0.829,1.480,1.066,0.462,0.809,0.761,��,2.9,��
2018/10/16,12:40,0.784,1.176,0.829,1.478,1.067,0.462,0.808,0.763,���k��,2.6,��
2018/10/16,12:50,0.783,1.176,0.830,1.476,1.065,0.461,0.808,0.763,��,2.8,��
2018/10/16,13:00,0.783,1.176,0.827,1.478,1.065,0.461,0.807,0.762,��,2.2,��
2018/10/16,13:10,0.784,1.177,0.828,1.479,1.066,0.461,0.809,0.763,�쓌,2.5,��
2018/10/16,13:20,0.785,1.177,0.828,1.478,1.067,0.462,0.809,0.763,��,2.0,��
2018/10/16,13:30,0.784,1.179,0.825,1.480,1.066,0.461,0.808,0.763,���k��,2.3,��
2018/10/16,13:40,0.785,1.175,0.829,1.480,1.065,0.460,0.809,0.762,���쓌,2.2,��
2018/10/16,13:50,0.783,1.177,0.831,1.479,1.065,0.463,0.809,0.763,��,2.2,��
2018/10/16,14:00,0.783,1.176,0.829,1.481,1.064,0.462,0.808,0.763,���쓌,2.0,��
2018/10/16,14:10,0.782,1.176,0.830,1.479,1.066,0.461,0.810,0.763,�쓌,2.0,��
2018/10/16,14:20,0.782,1.178,0.828,1.479,1.066,0.462,0.808,0.763,�쓌,2.3,��
2018/10/16,14:30,0.786,1.180,0.829,1.479,1.064,0.462,0.808,0.763,���쓌,2.2,��
2018/10/16,14:40,0.783,1.189,0.830,1.481,1.067,0.461,0.808,0.764,�쓌,2.6,��
2018/10/16,14:50,0.785,1.190,0.829,1.478,1.065,0.462,0.807,0.763,���쓌,2.3,��
2018/10/16,15:00,0.784,1.191,0.830,1.479,1.068,0.464,0.808,0.764,�쓌,2.0,��
2018/10/16,15:10,0.782,1.187,0.828,1.480,1.067,0.464,0.809,0.763,�쓌,2.5,��
2018/10/16,15:20,0.784,1.181,0.830,1.480,1.066,0.464,0.809,0.763,�쓌,2.1,��
2018/10/16,15:30,0.784,1.180,0.828,1.478,1.066,0.465,0.808,0.764,�쓌,2.0,��
2018/10/16,15:40,0.784,1.181,0.829,1.478,1.065,0.465,0.807,0.764,�쓌,2.1,��
2018/10/16,15:50,0.784,1.180,0.830,1.481,1.066,0.465,0.807,0.764,�쓌,2.0,��
2018/10/16,16:00,0.785,1.184,0.832,1.482,1.065,0.463,0.807,0.762,�쓌,1.5,��
2018/10/16,16:10,0.784,1.186,0.833,1.479,1.067,0.464,0.809,0.763,�쓌,2.0,��
2018/10/16,16:20,0.785,1.185,0.833,1.482,1.067,0.466,0.807,0.765,���쓌,1.7,��
2018/10/16,16:30,0.785,1.186,0.832,1.484,1.066,0.464,0.808,0.764,�쓌,1.4,��
2018/10/16,16:40,0.786,1.189,0.834,1.478,1.067,0.464,0.809,0.766,�쓌,1.9,��
2018/10/16,16:50,0.787,1.186,0.832,1.479,1.067,0.464,0.807,0.766,�쓌,1.5,��
2018/10/16,17:00,0.785,1.188,0.832,1.480,1.070,0.463,0.809,0.766,���쓌,1.9,��
2018/10/16,17:10,0.786,1.186,0.831,1.480,1.068,0.463,0.809,0.765,��,1.7,��
2018/10/16,17:20,0.788,1.188,0.832,1.479,1.067,0.465,0.807,0.767,��쓌,1.4,��
2018/10/16,17:30,0.787,1.187,0.834,1.482,1.070,0.463,0.807,0.765,��,1.5,��
2018/10/16,17:40,0.786,1.186,0.833,1.481,1.069,0.464,0.809,0.767,��,1.2,��
2018/10/16,17:50,0.784,1.188,0.834,1.480,1.068,0.464,0.808,0.767,��쐼,1.0,��
2018/10/16,18:00,0.785,1.187,0.833,1.480,1.069,0.464,0.809,0.766,��쐼,0.9,��
2018/10/16,18:10,0.785,1.185,0.833,1.481,1.069,0.464,0.809,0.764,��,1.1,��
2018/10/16,18:20,0.784,1.185,0.832,1.480,1.068,0.463,0.809,0.766,�쐼,0.6,��
2018/10/16,18:30,0.786,1.184,0.832,1.481,1.068,0.464,0.808,0.765,��,0.6,��
2018/10/16,18:40,0.785,1.185,0.832,1.481,1.068,0.462,0.808,0.766,-,CALM,��
2018/10/16,18:50,0.784,1.185,0.834,1.481,1.068,0.464,0.809,0.766,-,CALM,��
2018/10/16,19:00,0.785,1.184,0.832,1.480,1.068,0.464,0.807,0.766,-,CALM,��
2018/10/16,19:10,0.784,1.184,0.831,1.480,1.069,0.464,0.810,0.766,-,CALM,��
2018/10/16,19:20,0.785,1.185,0.833,1.480,1.069,0.464,0.809,0.765,-,CALM,��
2018/10/16,19:30,0.786,1.181,0.831,1.482,1.068,0.463,0.808,0.765,-,CALM,��
2018/10/16,19:40,0.785,1.185,0.833,1.478,1.067,0.464,0.809,0.764,-,CALM,��
2018/10/16,19:50,0.786,1.187,0.830,1.480,1.069,0.464,0.808,0.765,-,CALM,��
2018/10/16,20:00,0.785,1.184,0.831,1.483,1.068,0.463,0.807,0.766,-,CALM,��
2018/10/16,20:10,0.783,1.184,0.833,1.481,1.068,0.463,0.808,0.764,��,0.6,��
2018/10/16,20:20,0.783,1.183,0.832,1.480,1.069,0.464,0.808,0.766,-,CALM,��
2018/10/16,20:30,0.783,1.184,0.832,1.481,1.068,0.464,0.808,0.764,���쐼,0.9,��
2018/10/16,20:40,0.786,1.186,0.833,1.481,1.070,0.462,0.809,0.766,���쐼,0.9,��
2018/10/16,20:50,0.784,1.183,0.831,1.483,1.068,0.462,0.809,0.766,���k��,1.1,��
2018/10/16,21:00,0.784,1.181,0.834,1.478,1.068,0.463,0.808,0.767,��,0.8,��
2018/10/16,21:10,0.783,1.184,0.834,1.480,1.068,0.464,0.807,0.767,���k��,1.4,��
2018/10/16,21:20,0.784,1.185,0.832,1.481,1.067,0.464,0.810,0.766,���k��,2.0,��
2018/10/16,21:30,0.785,1.185,0.831,1.478,1.069,0.464,0.807,0.764,���k��,2.0,��
2018/10/16,21:40,0.784,1.184,0.831,1.481,1.068,0.463,0.810,0.764,���k��,2.0,��
2018/10/16,21:50,0.784,1.184,0.832,1.482,1.067,0.464,0.810,0.765,���k��,0.8,��
2018/10/16,22:00,0.784,1.184,0.833,1.480,1.067,0.462,0.809,0.765,���k��,1.2,��
2018/10/16,22:10,0.785,1.184,0.831,1.481,1.069,0.461,0.808,0.766,���k��,2.3,��
2018/10/16,22:20,0.783,1.182,0.833,1.481,1.067,0.462,0.808,0.764,�k��,1.5,��
2018/10/16,22:30,0.784,1.183,0.830,1.481,1.067,0.463,0.809,0.766,-,CALM,��
2018/10/16,22:40,0.786,1.184,0.831,1.482,1.065,0.462,0.808,0.766,-,CALM,��
2018/10/16,22:50,0.783,1.181,0.830,1.479,1.068,0.462,0.807,0.767,���k��,1.2,��
2018/10/16,23:00,0.784,1.181,0.831,1.481,1.069,0.462,0.807,0.765,�k��,1.2,��
2018/10/16,23:10,0.782,1.181,0.832,1.479,1.068,0.463,0.809,0.763,�k��,2.6,��
2018/10/16,23:20,0.784,1.182,0.832,1.479,1.068,0.463,0.808,0.766,�k��,3.5,��
2018/10/16,23:30,0.783,1.182,0.833,1.481,1.067,0.462,0.808,0.765,�k�k��,2.9,��
2018/10/16,23:40,0.784,1.182,0.832,1.479,1.066,0.462,0.809,0.765,�k��,3.1,��
2018/10/16,23:50,0.784,1.184,0.833,1.480,1.068,0.463,0.807,0.767,�k��,3.9,��
